Location: Spring Creek
(38.2870°N, 100.2160°W)
Time: 03:56:29
(UTC+00:00)

ARGOS - Pass Details

Date: 08 May 2021
Orbit: 821 x 834 km, 98.4° (Epoch: 22 June)

Event Time Altitude Azimuth Distance (km) Brightness Sun altitude
Rises 02:05:27 0° 182° (S) 3,341 6.1 -5.7°
Reaches altitude 10° 02:07:53 10° 189° (S) 2,411 5.4 -6.1°
Maximum altitude 02:12:59 45° 261° (W) 1,110 4.3 -7.0°
Drops below altitude 10° 02:18:06 10° 334° (NNW) 2,424 6.5 -7.9°
Sets 02:20:34 0° 340° (NNW) 3,360 7.2 -8.3°
